Regional Weather Roundup
Issued by NWS Binghamton, NY

Home | Current Version | Previous Version | Text Only | Print | Product List | Glossary On
Versions: 1 2 3 4 5 6 7 8 9 10 11 12 13 14 15 16 17 18 19 20 21 22 23 24 25 26 27 28 29 30 31 32 33 34 35 36 37 38 39 40 41 42 43 44 45 46 47 48 49 50
000
ASUS41 KBGM 060910
RWRBGM
RWRBGM
BINGHAMTON REGIONAL WEATHER ROUNDUP
NATIONAL WEATHER SERVICE BINGHAMTON NY
400 AM EST FRI MAR 06 2015

Note: "fair" indicates few or no clouds below 12,000 feet with no
significant weather and/or obstructions to visibility.

* = Station(s) that does not report precipitation, such as rain,
snow, etc, also no thunder or fog.

!NYZ009-015>018-022>025-036-037-044>046-055>057-062-061000
...CENTRAL NEW YORK...

CITY           SKY/WX    TMP DP  RH WIND       PRES   REMARKS
BINGHAMTON     PTCLDY     0  -4  83 W3        30.33S
CORTLAND       LGT SNOW   0  -4  85 CALM      30.41S
DANSVILLE      MOCLDY    -4  -9  79 S6        30.50R WCI -16
ELMIRA         PTCLDY     0  -5  79 W10       30.45S WCI -16
ITHACA         FLURRIES   1  -4  79 NW5       30.42S WCI  -9
MONTICELLO     CLEAR      3   1  92 CALM      30.34S
NORWICH        LGT SNOW  -6  -9  84 CALM      30.42R
ONEONTA        LGT SNOW   1  -2  85 W5        30.32R VSB 1   WCI  -8
PENN YAN       CLEAR      2  -5  72 SW8       30.44R WCI -12
ROME           MOCLDY    -4  -5  95 NW6       30.48R WCI -16
SIDNEY         MOCLDY    -6  -9  84 CALM      30.42S
SYRACUSE       PTCLDY    -1  -2  95 W8        30.48R WCI -15
$$

!PAZ038>040-043-044-047-048-072-061000
...NORTHEAST PENNSYLVANIA...

CITY           SKY/WX    TMP DP  RH WIND       PRES   REMARKS
HAZLETON       CLEAR      5  -4  66 W7        30.38R WCI  -7
SCRANTON       PTCLDY     7  -4  60 N7        30.42R WCI  -5
TOWANDA*       CLEAR      1  -6  71 SW5       30.48S WCI  -8
$$
&&
KEY
WCI = WIND CHILL INDEX
VSB = VISIBILITY
HX  = HEAT INDEX
$$



USA.gov is the U.S. government's official web portal to all federal, state and local government web resources and services.